[ ตารางข้อมูล ] [ Min-Max ] [ วันนี้4 ] [ วันนี้2 ] [ เทียบ3วัน A ] [ เทียบ4วัน B ]   

วันนี้2   [ ◀ ช่วงเก่ากว่า ] [ ช่วงที่ 286 ] [ ช่วงใหม่กว่า ▶ ] [ ล่าสุด ]    [ 3 ชั่วโมง ] [ 6 ชั่วโมง ] [ 12 ชั่วโมง ] [ 24 ชั่วโมง ]   วันนี้2

อุณภูมิตู้ Knockdown4529  ราย 3 ชั่วโมง  ที่วัดได้ ในช่วงวันเวลา 02/04/2026 (09:19) ถึง 02/04/2026 (12:19) 
ความชื้นในตู้ Knockdown4529  ราย 3 ชั่วโมง  ที่วัดได้ ในช่วงวันเวลา 02/04/2026 (09:19) ถึง 02/04/2026 (12:19) 

 
DS18B20SHTC3 
IDDate d/m/Y & Timedata1
สูง
data2
ต่ำ
data3
นอก
temp
pcb
hum
pcb
Time
 8108  02/04/2026 12:17:57  32.4  31.0  32.8  31.5  67.5  12:17 
 8107  02/04/2026 12:13:16  32.3  30.9  33.1  31.5  67.5  12:13 
 8106  02/04/2026 12:08:34  32.3  30.9  32.8  31.6  67.5  12:08 
 8105  02/04/2026 12:03:51  32.2  30.9  32.6  31.4  67.5  12:03 
 8104  02/04/2026 11:59:09  32.2  30.8  32.9  31.6  67.8  11:59 
 8103  02/04/2026 11:54:27  32.1  30.8  32.7  31.4  67.6  11:54 
 8102  02/04/2026 11:49:45  32.1  30.8  33.0  31.5  67.7  11:49 
 8101  02/04/2026 11:45:03  32.0  30.7  32.8  31.2  67.6  11:45 
 8100  02/04/2026 11:40:19  31.9  30.6  32.3  31.4  67.8  11:40 
 8099  02/04/2026 11:35:37  31.9  30.6  32.5  31.4  67.7  11:35 
 8098  02/04/2026 11:30:54  31.9  30.6  32.6  31.1  67.6  11:30 
 8097  02/04/2026 11:26:12  31.8  30.5  32.5  31.1  67.8  11:26 
 8096  02/04/2026 11:21:29  31.8  30.4  32.8  30.9  67.9  11:21 
 8095  02/04/2026 11:16:47  31.6  30.4  32.5  30.8  67.8  11:16 
 8094  02/04/2026 11:12:06  31.5  30.3  33.0  31.0  68.0  11:12 
 8093  02/04/2026 11:07:22  31.4  30.2  33.2  30.8  68.0  11:07 
 8092  02/04/2026 11:02:40  31.3  30.1  32.6  30.8  68.0  11:02 
 8091  02/04/2026 10:53:15  31.1  30.1  32.7  30.5  68.4  10:53 
 8090  02/04/2026 10:48:33  31.0  29.9  32.8  30.4  68.4  10:48 
 8089  02/04/2026 10:43:51  30.9  29.9  32.3  30.4  68.5  10:43 
 8088  02/04/2026 10:39:09  30.9  29.8  32.2  30.3  68.6  10:39 
 8087  02/04/2026 10:34:28  30.8  29.8  32.0  30.4  68.7  10:34 
 8086  02/04/2026 10:29:46  30.7  29.7  31.9  30.0  68.7  10:29 
 8085  02/04/2026 10:20:22  30.5  29.6  32.0  30.0  68.8  10:20 

Data every 5 minute.


ใช้เวลาประมวลผล 0.00178 วินาที